LTU595 EDLW-EDDG

Flight info

Callsign LTU595
Flight time 0h 26m
Altitude 11000
Route DOMEG2U/24 DOMEG DOMEG2J
Aircraft L101/H-SDFGHIRWXY/S

Departure

Time 2026-04-09 21:52
Airport Dortmund Airport (EDLW)

Arrival

Time 2026-04-09 22:19
Airport Münster Osnabrück Airport (EDDG)
Time Latitude Longitude Altitude Speed Heading
2026-04-09 21:27 51.51474 7.61120 441 ft 0 kts 145°
2026-04-09 21:41 51.51481 7.61112 440 ft 2 kts 139°
2026-04-09 21:41 51.51491 7.61096 437 ft 2 kts 131°
2026-04-09 21:41 51.51500 7.61077 436 ft 2 kts 114°
2026-04-09 21:42 51.51503 7.61052 428 ft 2 kts 86°
2026-04-09 21:42 51.51499 7.61026 427 ft 2 kts 67°
2026-04-09 21:42 51.51494 7.61011 430 ft 1 kts 60°
2026-04-09 21:42 51.51493 7.61008 424 ft 0 kts 60°
2026-04-09 21:45 51.51505 7.61038 426 ft 6 kts 55°
2026-04-09 21:45 51.51563 7.61062 435 ft 13 kts 10°
2026-04-09 21:46 51.51616 7.61145 423 ft 12 kts 58°
2026-04-09 21:46 51.51663 7.61270 421 ft 4 kts 62°
2026-04-09 21:49 51.51673 7.61307 421 ft 8 kts 66°
2026-04-09 21:49 51.51710 7.61420 424 ft 14 kts 60°
2026-04-09 21:49 51.51772 7.61593 417 ft 21 kts 60°
2026-04-09 21:49 51.51857 7.61831 412 ft 27 kts 61°
2026-04-09 21:50 51.51957 7.62112 409 ft 31 kts 59°
2026-04-09 21:50 51.52037 7.62338 408 ft 21 kts 64°
2026-04-09 21:50 51.52107 7.62545 403 ft 23 kts 60°
2026-04-09 21:50 51.52184 7.62749 405 ft 16 kts 52°
2026-04-09 21:51 51.52256 7.62765 404 ft 13 kts 336°
2026-04-09 21:51 51.52321 7.62656 408 ft 14 kts 276°
2026-04-09 21:51 51.52284 7.62512 408 ft 15 kts 239°
2026-04-09 21:51 51.52176 7.62200 407 ft 69 kts 240°
2026-04-09 21:52 51.51765 7.61051 448 ft 161 kts 240°
2026-04-09 21:52 51.51112 7.59234 684 ft 215 kts 239°
2026-04-09 21:52 51.50434 7.57273 999 ft 199 kts 239°
2026-04-09 21:52 51.49705 7.55370 2112 ft 198 kts 235°
2026-04-09 21:53 51.48881 7.53632 3749 ft 194 kts 232°
2026-04-09 21:53 51.47959 7.52050 5359 ft 197 kts 228°
2026-04-09 21:53 51.46888 7.50486 6352 ft 219 kts 225°
2026-04-09 21:53 51.45669 7.48924 6457 ft 226 kts 221°
2026-04-09 21:54 51.44334 7.47415 6298 ft 247 kts 218°
2026-04-09 21:54 51.42877 7.45901 6080 ft 257 kts 216°
2026-04-09 21:54 51.41340 7.44428 5845 ft 243 kts 214°
2026-04-09 21:54 51.39945 7.42962 5582 ft 251 kts 218°
2026-04-09 21:55 51.38484 7.41375 5360 ft 256 kts 217°
2026-04-09 21:55 51.37612 7.40479 5224 ft 257 kts 216°
2026-04-09 21:56 51.36629 7.39515 5109 ft 257 kts 214°
2026-04-09 21:56 51.35134 7.37956 5001 ft 255 kts 223°
2026-04-09 21:56 51.34097 7.35709 5093 ft 250 kts 250°
2026-04-09 21:57 51.33787 7.33010 5214 ft 248 kts 268°
2026-04-09 21:57 51.33968 7.30225 5150 ft 253 kts 281°
2026-04-09 21:57 51.34445 7.27546 5070 ft 253 kts 287°
2026-04-09 21:57 51.35058 7.24920 5084 ft 253 kts 295°
2026-04-09 21:58 51.36088 7.22625 5092 ft 256 kts 309°
2026-04-09 21:58 51.37377 7.20619 5116 ft 259 kts 316°
2026-04-09 21:58 51.38808 7.18847 5099 ft 261 kts 320°
2026-04-09 21:58 51.40347 7.17284 5063 ft 265 kts 329°
2026-04-09 21:59 51.42165 7.16654 5040 ft 275 kts 359°
2026-04-09 21:59 51.44009 7.17561 5092 ft 285 kts 29°
2026-04-09 21:59 51.45437 7.19772 5143 ft 289 kts 51°
2026-04-09 21:59 51.46610 7.22441 5148 ft 292 kts 53°
2026-04-09 22:00 51.47835 7.24970 5060 ft 289 kts 47°
2026-04-09 22:00 51.49174 7.27349 5080 ft 287 kts 45°
2026-04-09 22:00 51.50561 7.29651 5094 ft 286 kts 43°
2026-04-09 22:00 51.51958 7.31930 5092 ft 286 kts 43°
2026-04-09 22:01 51.53368 7.34196 5096 ft 287 kts 42°
2026-04-09 22:01 51.54802 7.36424 5093 ft 286 kts 41°
2026-04-09 22:01 51.56258 7.38617 5095 ft 287 kts 40°
2026-04-09 22:01 51.57735 7.40762 5099 ft 286 kts 39°
2026-04-09 22:02 51.59233 7.42862 5087 ft 285 kts 38°
2026-04-09 22:02 51.60720 7.44916 5090 ft 285 kts 38°
2026-04-09 22:02 51.62229 7.47001 5090 ft 285 kts 38°
2026-04-09 22:02 51.63734 7.49091 5092 ft 285 kts 38°
2026-04-09 22:03 51.65237 7.51188 5092 ft 285 kts 38°
2026-04-09 22:03 51.66743 7.53294 5092 ft 285 kts 38°
2026-04-09 22:03 51.68241 7.55390 5093 ft 285 kts 39°
2026-04-09 22:03 51.69765 7.57380 5093 ft 284 kts 32°
2026-04-09 22:04 51.70873 7.58560 5094 ft 283 kts 28°
2026-04-09 22:04 51.73153 7.60616 5098 ft 282 kts 25°
2026-04-09 22:04 51.74886 7.62098 5095 ft 282 kts 25°
2026-04-09 22:04 51.76033 7.63079 5094 ft 282 kts 25°
2026-04-09 22:05 51.77769 7.64562 5096 ft 282 kts 25°
2026-04-09 22:05 51.81251 7.67494 5092 ft 283 kts 24°
2026-04-09 22:05 51.83001 7.68973 5093 ft 284 kts 26°
2026-04-09 22:06 51.84683 7.70636 5095 ft 284 kts 31°
2026-04-09 22:06 51.86334 7.72419 5079 ft 285 kts 32°
2026-04-09 22:06 51.87967 7.74238 5022 ft 285 kts 32°
2026-04-09 22:06 51.89588 7.76068 4957 ft 283 kts 33°
2026-04-09 22:07 51.91203 7.77892 4971 ft 283 kts 33°
2026-04-09 22:07 51.92824 7.79723 5005 ft 284 kts 32°
2026-04-09 22:07 51.94445 7.81558 5005 ft 284 kts 32°
2026-04-09 22:07 51.96051 7.83378 4995 ft 284 kts 32°
2026-04-09 22:08 51.97659 7.85225 5005 ft 283 kts 32°
2026-04-09 22:08 51.99252 7.87089 5005 ft 282 kts 32°
2026-04-09 22:08 52.00833 7.88956 5004 ft 281 kts 33°
2026-04-09 22:08 52.02419 7.90828 5005 ft 281 kts 33°
2026-04-09 22:09 52.04012 7.92694 4993 ft 283 kts 33°
2026-04-09 22:09 52.05588 7.94534 4976 ft 273 kts 33°
2026-04-09 22:09 52.07132 7.96334 4654 ft 271 kts 33°
2026-04-09 22:09 52.08660 7.98104 4186 ft 268 kts 33°
2026-04-09 22:10 52.10180 7.99846 3681 ft 266 kts 33°
2026-04-09 22:10 52.11692 8.01554 3291 ft 260 kts 33°
2026-04-09 22:10 52.13174 8.03207 3031 ft 259 kts 33°
2026-04-09 22:10 52.14668 8.04852 2869 ft 257 kts 33°
2026-04-09 22:11 52.16134 8.06454 2947 ft 258 kts 32°
2026-04-09 22:11 52.17633 8.08089 3031 ft 261 kts 32°
2026-04-09 22:11 52.19142 8.09739 3011 ft 260 kts 33°
2026-04-09 22:11 52.20645 8.11378 2979 ft 260 kts 32°
2026-04-09 22:12 52.22274 8.12588 2955 ft 257 kts
2026-04-09 22:12 52.24013 8.12461 2978 ft 249 kts 339°
2026-04-09 22:12 52.25447 8.11036 3072 ft 233 kts 310°
2026-04-09 22:12 52.26162 8.08877 2950 ft 209 kts 278°
2026-04-09 22:13 52.25988 8.06666 2875 ft 194 kts 241°
2026-04-09 22:13 52.25069 8.05081 2949 ft 194 kts 216°
2026-04-09 22:13 52.23903 8.03937 3130 ft 199 kts 208°
2026-04-09 22:13 52.22605 8.03098 3050 ft 201 kts 201°
2026-04-09 22:14 52.21306 8.02287 2947 ft 199 kts 202°
2026-04-09 22:14 52.20139 8.01183 2921 ft 198 kts 227°
2026-04-09 22:14 52.19583 7.99220 3003 ft 187 kts 258°
2026-04-09 22:14 52.19481 7.97225 3437 ft 170 kts 263°
2026-04-09 22:15 52.19238 7.95320 3772 ft 173 kts 253°
2026-04-09 22:15 52.18819 7.93473 3693 ft 174 kts 248°
2026-04-09 22:15 52.18384 7.91681 3376 ft 162 kts 248°
2026-04-09 22:15 52.18025 7.90017 2960 ft 152 kts 250°
2026-04-09 22:16 52.17714 7.88407 2642 ft 147 kts 250°
2026-04-09 22:16 52.17401 7.86826 2387 ft 147 kts 248°
2026-04-09 22:16 52.17072 7.85247 2171 ft 148 kts 247°
2026-04-09 22:16 52.16738 7.83662 1972 ft 148 kts 246°
2026-04-09 22:17 52.16399 7.82073 1767 ft 149 kts 245°
2026-04-09 22:17 52.16060 7.80483 1573 ft 148 kts 246°
2026-04-09 22:17 52.15710 7.78894 1369 ft 150 kts 245°
2026-04-09 22:17 52.15362 7.77274 1165 ft 153 kts 246°
2026-04-09 22:18 52.15015 7.75626 954 ft 153 kts 246°
2026-04-09 22:18 52.14642 7.73997 733 ft 157 kts 246°
2026-04-09 22:18 52.14281 7.72316 573 ft 161 kts 250°
2026-04-09 22:18 52.13903 7.70553 315 ft 167 kts 251°
2026-04-09 22:19 52.13524 7.68779 171 ft 148 kts 251°
2026-04-09 22:19 52.13285 7.67645 170 ft 66 kts 252°
2026-04-09 22:19 52.13196 7.67199 169 ft 17 kts 249°
2026-04-09 22:19 52.13148 7.67071 169 ft 12 kts 202°
2026-04-09 22:20 52.13069 7.67092 170 ft 13 kts 133°
2026-04-09 22:20 52.13029 7.67223 168 ft 14 kts 82°
2026-04-09 22:20 52.13059 7.67406 166 ft 19 kts 68°
2026-04-09 22:20 52.13108 7.67619 166 ft 22 kts 73°
2026-04-09 22:21 52.13157 7.67862 169 ft 24 kts 71°
2026-04-09 22:21 52.13196 7.68048 170 ft 15 kts 71°
2026-04-09 22:21 52.13234 7.68227 171 ft 18 kts 71°
2026-04-09 22:21 52.13278 7.68432 173 ft 20 kts 71°
2026-04-09 22:22 52.13328 7.68668 169 ft 25 kts 71°
2026-04-09 22:22 52.13386 7.68941 170 ft 26 kts 71°
2026-04-09 22:22 52.13429 7.69178 167 ft 17 kts 97°
2026-04-09 22:22 52.13394 7.69295 169 ft 10 kts 98°
2026-04-09 22:23 52.13396 7.69399 169 ft 8 kts 124°
2026-04-09 22:23 52.13352 7.69440 169 ft 9 kts 158°
2026-04-09 22:23 52.13333 7.69451 169 ft 0 kts 161°